N1SU-13 Weather Reports


Display with metric or nautical units.
time (UTC)temp
F
wind
direction
speed
MPH
gust
MPH
rain 1hr
in
rain 24hr
in
rain mn
in
humidity
%
barometer
mb
20220118122214 42 0.0 0.0 0.00 0.08 0.00 99 1016.9
20220118122102 42 0.0 0.0 0.00 0.08 0.00 99 1017.0
20220118121220 42 0.0 0.0 0.00 0.08 0.00 99 1016.7
20220118121210 42 0.0 0.0 0.00 0.08 0.00 99 1016.6
20220118120329 42 0.0 0.0 0.00 0.08 0.00 99 1016.4
20220118120114 42 0.0 0.0 0.00 0.08 0.00 99 1016.5
20220118115336 42 0.0 0.0 0.00 0.08 0.00 99 1016.5
20220118115028 42 0.0 0.0 0.00 0.08 0.00 99 1016.4
20220118114443 42 0.0 0.0 0.00 0.08 0.00 99 1016.6
20220118114031 42 0.0 0.0 0.00 0.08 0.00 99 1016.6
20220118113016 42 0.0 0.0 0.00 0.08 0.00 99 1016.6
20220118112456 42 0.0 0.0 0.00 0.08 0.00 99 1016.6
20220118111921 42 0.0 0.0 0.00 0.08 0.00 99 1016.6
20220118111453 42 0.0 0.0 0.00 0.08 0.00 99 1016.5
20220118110936 42 0.0 0.0 0.00 0.08 0.00 99 1016.4
20220118110409 42 0.0 0.0 0.00 0.08 0.00 99 1016.3
20220118105855 42 0.0 0.0 0.00 0.08 0.00 99 1016.4
20220118105500 42 0.0 0.0 0.00 0.08 0.00 99 1016.4
20220118104820 42 0.0 0.0 0.00 0.08 0.00 99 1016.6
20220118104500 43 0.0 0.0 0.00 0.08 0.00 99 1016.5
20220118103911 43 0.0 0.0 0.00 0.08 0.00 99 1016.2
20220118103413 43 0.0 0.0 0.00 0.08 0.00 99 1016.3
20220118102902 43 0.0 0.0 0.00 0.08 0.00 99 1016.5
20220118102414 43 0.0 0.0 0.00 0.08 0.00 99 1016.5
20220118101825 43 0.0 0.0 0.00 0.08 0.00 99 1016.5
20220118101330 43 0.0 0.0 0.00 0.08 0.00 99 1016.3
20220118100727 43 0.0 0.0 0.00 0.08 0.00 99 1016.3
20220118095826 43 0.0 0.0 0.00 0.08 0.00 99 1016.2
20220118094825 43 0.0 0.0 0.00 0.08 0.00 99 1016.2
20220118094224 43 0.0 0.0 0.00 0.08 0.00 99 1016.2
20220118093756 43 0.0 0.0 0.00 0.08 0.00 99 1016.2
20220118093159 43 0.0 0.0 0.00 0.08 0.00 99 1016.2
20220118092740 43 0.0 0.0 0.00 0.08 0.00 99 1016.2
20220118092103 43 0.0 0.0 0.00 0.08 0.00 99 1016.3
20220118091827 43 0.0 0.0 0.00 0.08 0.00 99 1016.2
20220118090837 42 0.0 0.0 0.00 0.08 0.00 99 1016.4
20220118090050 42 0.0 0.0 0.00 0.08 0.00 99 1016.2
20220118085825 42 0.0 0.0 0.00 0.08 0.00 99 1016.2
20220118084847 42 0.0 0.0 0.00 0.08 0.00 98 1016.3
20220118084044 42 0.0 0.0 0.01 0.08 0.00 99 1016.2
20220118083756 42 0.0 0.0 0.01 0.08 0.00 99 1016.3
20220118083057 42 0.0 0.0 0.01 0.08 0.00 99 1016.1
20220118082745 42 0.0 0.0 0.01 0.08 0.00 99 1016.1
20220118082050 42 0.0 0.0 0.01 0.08 0.00 99 1016.2
20220118081825 42 0.0 0.0 0.01 0.08 0.00 99 1016.1
20220118081143 43 0.0 0.0 0.02 0.08 0.00 98 1016.1
20220118080911 43 0.0 0.0 0.02 0.08 0.00 98 1016.2
20220118080104 43 0.0 0.0 0.03 0.08 0.00 98 1016.1
20220118080025 43 0.0 0.0 0.03 0.08 0.00 97 1016.1
20220118075012 43 0.0 0.0 0.03 0.08 0.00 97 1016.2
20220118074016 43 0.0 0.0 0.01 0.07 0.00 96 1016.1
20220118073947 43 0.0 0.0 0.01 0.07 0.00 96 1016.2
20220118073015 43 0.0 0.0 0.03 0.07 0.00 96 1016.0
20220118072039 43 0.0 0.0 0.03 0.07 0.00 96 1016.1
20220118071106 43 0.0 0.0 0.02 0.05 0.00 96 1016.2
20220118070956 43 0.0 0.0 0.02 0.05 0.00 96 1016.3
20220118070206 43 0.0 0.0 0.01 0.05 0.00 96 1016.2
20220118065905 43 0.0 0.0 0.01 0.05 0.00 96 1016.2
20220118065317 43 0.0 0.0 0.01 0.05 0.00 96 1016.1
20220118064856 43 0.0 0.0 0.01 0.05 0.00 96 1016.1
20220118064254 43 0.0 0.0 0.01 0.05 0.00 96 1016.1
20220118063759 43 0.0 0.0 0.01 0.03 0.00 96 1016.0
20220118063240 43 0.0 0.0 0.01 0.03 0.00 96 1016.0
20220118062804 43 0.0 0.0 0.01 0.03 0.00 96 1016.2
20220118062235 43 0.0 0.0 0.01 0.03 0.00 96 1016.2
20220118061830 43 0.0 0.0 0.01 0.03 0.00 96 1016.1
20220118061236 43 0.0 0.0 0.01 0.03 0.00 97 1016.2
20220118060941 43 0.0 0.0 0.01 0.03 0.00 97 1016.2
20220118060201 43 0.0 0.0 0.01 0.03 0.00 97 1016.1
20220118060055 43 0.0 0.0 0.01 0.03 0.00 97 1016.1
20220118055152 43 0.0 0.0 0.01 0.03 0.00 97 1016.1
20220118055005 43 0.0 0.0 0.01 0.03 0.00 97 1016.1
20220118054234 43 0.0 0.0 0.00 0.01 0.00 97 1016.2
20220118053956 43 0.0 0.0 0.00 0.01 0.00 97 1016.1
20220118053340 43 0.0 0.0 0.00 0.01 0.00 96 1016.1
20220118052945 43 0.0 0.0 0.00 0.01 0.00 96 1016.1
20220118052446 43 0.0 0.0 0.00 0.01 0.00 97 1016.2
20220118051859 43 0.0 0.0 0.00 0.01 0.00 97 1016.2
20220118051550 43 0.0 0.0 0.00 0.01 0.00 97 1016.2
20220118050829 43 0.0 0.0 0.00 0.01 0.00 97 1016.2
20220118050652 43 0.0 0.0 0.00 0.01 0.00 97 1016.2
20220118045758 43 0.0 0.0 0.00 0.01 0.00 96 1016.2
20220118045552 43 0.0 0.0 0.00 0.01 0.00 97 1016.3
20220118044748 43 0.0 0.0 0.00 0.01 0.00 95 1016.2
20220118044640 43 0.0 0.0 0.00 0.01 0.00 95 1016.2
20220118043729 43 0.0 0.0 0.01 0.01 0.00 95 1016.2
20220118042850 43 0.0 0.0 0.01 0.01 0.00 94 1016.3
20220118041907 43 0.0 0.0 0.01 0.01 0.00 94 1016.1
20220118041658 43 0.0 0.0 0.01 0.01 0.00 94 1016.3
20220118040950 43 0.0 0.0 0.01 0.01 0.00 94 1016.4
20220118040654 43 0.0 0.0 0.01 0.01 0.00 93 1016.4
20220118035902 44 0.0 0.0 0.01 0.01 0.00 93 1016.3
20220118035723 44 0.0 0.0 0.01 0.01 0.00 93 1016.5
20220118035008 44 0.0 0.0 0.01 0.01 0.00 94 1016.4
20220118034809 44 0.0 0.0 0.01 0.01 0.00 93 1016.4
20220118034022 44 0.0 0.0 0.00 0.00 0.00 93 1016.3
20220118033827 44 0.0 0.0 0.00 0.00 0.00 92 1016.5
20220118032956 44 0.0 0.0 0.00 0.00 0.00 90 1016.5
20220118032900 44 0.0 0.0 0.00 0.00 0.00 91 1016.4
20220118032047 44 0.0 0.0 0.00 0.00 0.00 89 1016.4
20220118031814 45 0.0 0.0 0.00 0.00 0.00 89 1016.3
20220118031037 45 0.0 0.0 0.00 0.00 0.00 87 1016.3
20220118030859 45 0.0 0.0 0.00 0.00 0.00 87 1016.1
20220118025955 45 0.0 0.0 0.00 0.00 0.00 84 1016.2
20220118025854 45 0.0 0.0 0.00 0.00 0.00 84 1016.1
20220118025030 45 0.0 0.0 0.00 0.00 0.00 82 1016.0
20220118024859 45 0.0 0.0 0.00 0.00 0.00 81 1016.1
20220118024045 46 0.0 0.0 0.00 0.00 0.00 78 1016.1
20220118023916 46 0.0 0.0 0.00 0.00 0.00 78 1016.1
20220118023129 46 0.0 0.0 0.00 0.00 0.00 77 1016.1
20220118022909 46 0.0 0.0 0.00 0.00 0.00 76 1016.1
20220118022121 46 0.0 0.0 0.00 0.00 0.00 73 1016.1
20220118021030 46 0.0 0.0 0.00 0.00 0.00 71 1015.9
20220118020912 46 0.0 0.0 0.00 0.00 0.00 70 1016.0
20220118020031 46 0.0 0.0 0.00 0.00 0.00 68 1015.9
20220118015845 46 0.0 0.0 0.00 0.00 0.00 68 1016.0
20220118015032 46 0.0 0.0 0.00 0.00 0.00 68 1016.1
20220118014854 46 0.0 0.0 0.00 0.00 0.00 68 1016.0
20220118013945 46 0.0 0.0 0.00 0.00 0.00 71 1016.0
20220118013809 46 0.0 0.0 0.00 0.00 0.00 71 1016.0
20220118012859 46 0.0 0.0 0.00 0.00 0.00 73 1016.0
20220118011956 46 0.0 0.0 0.00 0.00 0.00 74 1016.0
20220118010915 46 0.0 0.0 0.00 0.00 0.00 75 1016.0
20220118005939 46 0.0 0.0 0.00 0.00 0.00 74 1015.9
20220118004948 46 0.0 0.0 0.00 0.00 0.00 72 1015.9
20220118004006 46 0.0 0.0 0.00 0.00 0.00 71 1015.8
20220118003042 47 0.0 0.0 0.00 0.00 0.00 71 1015.8
20220118001004 47 0.0 0.0 0.00 0.00 0.00 68 1015.7
20220118000050 47 0.0 0.0 0.00 0.00 0.00 68 1015.7
20220117235521 47 0.0 0.0 0.00 0.00 0.00 72 1015.7
20220117235052 47 0.0 0.0 0.00 0.00 0.00 69 1015.8
20220117234459 47 0.0 0.0 0.00 0.00 0.00 69 1015.8
20220117234114 47 0.0 0.0 0.00 0.00 0.00 69 1015.8
20220117233146 48 0.0 0.0 0.00 0.00 0.00 68 1015.8
20220117232451 48 0.0 0.0 0.00 0.00 0.00 68 1015.9
20220117232254 48 0.0 0.0 0.00 0.00 0.00 68 1015.8
20220117231445 48 0.0 0.0 0.00 0.00 0.00 68 1016.1
20220117231303 48 0.0 0.0 0.00 0.00 0.00 67 1016.1
20220117230420 47 0.0 0.0 0.00 0.00 0.00 66 1016.2
20220117230313 47 0.0 0.0 0.00 0.00 0.00 67 1016.2
20220117225402 47 0.0 0.0 0.00 0.00 0.00 67 1016.2
20220117225326 47 0.0 0.0 0.00 0.00 0.00 67 1016.2
20220117224444 47 0.0 0.0 0.00 0.00 0.00 68 1016.3
20220117224355 47 0.0 0.0 0.00 0.00 0.00 68 1016.2
20220117223427 47 0.0 0.0 0.00 0.00 0.00 68 1016.2
20220117223415 47 0.0 0.0 0.00 0.00 0.00 69 1016.2
20220117222506 47 0.0 0.0 0.00 0.00 0.00 71 1016.1
20220117222424 47 0.0 0.0 0.00 0.00 0.00 70 1016.1
20220117221357 47 0.0 0.0 0.00 0.00 0.00 69 1015.9
20220117220431 47 0.0 0.0 0.00 0.00 0.00 70 1015.9
20220117220335 47 0.0 0.0 0.00 0.00 0.00 71 1015.9
20220117215419 47 0.0 0.0 0.00 0.00 0.00 74 1016.0
20220117215238 47 0.0 0.0 0.00 0.00 0.00 73 1016.2
20220117214258 47 0.0 0.0 0.00 0.00 0.00 77 1016.2
20220117213310 47 0.0 0.0 0.00 0.00 0.00 79 1016.4
20220117212352 46 0.0 0.0 0.00 0.00 0.00 79 1016.4
20220117211318 46 0.0 0.0 0.00 0.00 0.00 80 1016.7
20220117210410 46 0.0 0.0 0.00 0.00 0.00 80 1016.6
20220117205513 46 0.0 0.0 0.00 0.00 0.00 80 1016.6
20220117205312 46 0.0 0.0 0.00 0.00 0.00 80 1016.5
20220117204622 45 0.0 0.0 0.00 0.00 0.00 80 1016.6
20220117204338 45 0.0 0.0 0.00 0.00 0.00 82 1016.7
20220117203253 45 0.0 0.0 0.00 0.00 0.00 84 1016.8
20220117202646 44 0.0 0.0 0.00 0.00 0.00 85 1016.8
20220117202327 44 0.0 0.0 0.00 0.00 0.00 85 1016.9
20220117201401 44 0.0 0.0 0.00 0.00 0.00 86 1017.4
20220117200713 43 0.0 0.0 0.00 0.00 0.00 86 1018.0
20220117200359 43 0.0 0.0 0.00 0.00 0.00 87 1018.0
20220117195615 43 0.0 0.0 0.00 0.00 0.00 87 1017.6
20220117195500 43 0.0 0.0 0.00 0.00 0.00 87 1017.4
20220117194731 42 0.0 0.0 0.00 0.00 0.00 87 1017.2
20220117194605 42 0.0 0.0 0.00 0.00 0.00 87 1017.2
20220117193512 42 0.0 0.0 0.00 0.00 0.00 87 1017.7
20220117192811 42 0.0 0.0 0.00 0.00 0.00 88 1018.0
20220117192613 42 0.0 0.0 0.00 0.00 0.00 87 1018.0
20220117191636 42 0.0 0.0 0.00 0.00 0.00 92 1017.9
20220117190722 41 0.0 0.0 0.00 0.00 0.00 93 1017.9
20220117185644 41 0.0 0.0 0.00 0.00 0.00 93 1018.2
20220117184614 40 0.0 0.0 0.00 0.00 0.00 93 1018.3
20220117183714 40 0.0 0.0 0.00 0.00 0.00 94 1018.6
20220117183639 40 0.0 0.0 0.00 0.00 0.00 94 1018.6
20220117182830 40 0.0 0.0 0.00 0.00 0.00 93 1018.3
20220117182552 40 0.0 0.0 0.00 0.00 0.00 93 1018.4
20220117181912 40 0.0 0.0 0.00 0.00 0.00 91 1018.2
20220117180906 40 0.0 0.0 0.00 0.00 0.00 90 1018.0
20220117180721 40 0.0 0.0 0.00 0.00 0.00 90 1018.2
20220117175924 40 0.0 0.0 0.00 0.00 0.00 90 1018.3
20220117175723 40 0.0 0.0 0.00 0.00 0.00 90 1018.4
20220117175009 39 0.0 0.0 0.00 0.00 0.00 93 1018.7
20220117174826 39 0.0 0.0 0.00 0.00 0.00 93 1018.6
20220117173940 39 0.0 0.0 0.00 0.00 0.00 93 1018.6
20220117173826 39 0.0 0.0 0.00 0.00 0.00 94 1018.5
20220117172903 39 0.0 0.0 0.00 0.00 0.00 94 1018.5
20220117172001 39 0.0 0.0 0.00 0.00 0.00 94 1018.0
20220117171929 39 0.0 0.0 0.00 0.00 0.00 93 1018.1
20220117170852 38 0.0 0.0 0.00 0.00 0.00 94 1018.2
20220117165917 38 0.0 0.0 0.00 0.00 0.00 97 1018.1
20220117165901 38 0.0 0.0 0.00 0.00 0.00 97 1018.0
20220117164852 37 0.0 0.0 0.00 0.00 0.00 97 1017.9
20220117163847 37 0.0 0.0 0.00 0.00 0.00 97 1018.0
20220117162836 37 0.0 0.0 0.00 0.00 0.00 97 1017.8
20220117161853 37 0.0 0.0 0.00 0.00 0.00 97 1017.8
20220117161032 37 0.0 0.0 0.00 0.00 0.00 97 1017.5
20220117160923 37 0.0 0.0 0.00 0.00 0.00 97 1017.6
20220117155924 36 0.0 0.0 0.00 0.00 0.00 97 1018.0
20220117154903 36 0.0 0.0 0.00 0.00 0.00 97 1017.9
20220117153904 36 0.0 0.0 0.00 0.00 0.00 97 1017.8
20220117153901 36 0.0 0.0 0.00 0.00 0.00 97 1017.8
20220117153702 36 0.0 0.0 0.00 0.00 0.00 98 1017.9
20220117153132 36 0.0 0.0 0.00 0.00 0.00 97 1017.9
20220117152746 36 0.0 0.0 0.00 0.00 0.00 97 1018.0
20220117152106 36 0.0 0.0 0.00 0.00 0.00 96 1017.8
20220117151735 36 0.0 0.0 0.00 0.00 0.00 97 1017.7
20220117151202 37 0.0 0.0 0.00 0.00 0.00 97 1017.4
20220117150729 36 0.0 0.0 0.00 0.00 0.00 98 1017.4
20220117150122 36 0.0 0.0 0.00 0.00 0.00 98 1017.4
20220117145732 36 0.0 0.0 0.00 0.00 0.00 97 1017.6
20220117145050 36 0.0 0.0 0.00 0.00 0.00 97 1017.9
20220117144747 36 0.0 0.0 0.00 0.00 0.00 98 1017.7
20220117144029 36 0.0 0.0 0.00 0.00 0.00 98 1017.6
20220117143001 36 0.0 0.0 0.00 0.00 0.00 97 1017.8
20220117142836 36 0.0 0.0 0.00 0.00 0.00 97 1017.9
20220117142018 36 0.0 0.0 0.00 0.00 0.00 97 1017.8
20220117141841 36 0.0 0.0 0.00 0.00 0.00 96 1018.0
20220117140924 36 0.0 0.0 0.00 0.00 0.00 97 1017.5
20220117140747 36 0.0 0.0 0.00 0.00 0.00 97 1017.4
20220117135722 37 0.0 0.0 0.00 0.00 0.00 97 1017.7
20220117134818 37 0.0 0.0 0.00 0.00 0.00 97 1017.5
20220117134737 37 0.0 0.0 0.00 0.00 0.00 97 1017.5
20220117133736 37 0.0 0.0 0.00 0.00 0.00 98 1017.5
20220117133657 37 0.0 0.0 0.00 0.00 0.00 98 1017.7
20220117132718 36 0.0 0.0 0.00 0.00 0.00 98 1017.7
20220117131829 36 0.0 0.0 0.00 0.00 0.00 98 1017.4
20220117130830 36 0.0 0.0 0.00 0.00 0.00 97 1017.9
20220117125935 36 0.0 0.0 0.00 0.00 0.00 97 1017.5
20220117125809 36 0.0 0.0 0.00 0.00 0.00 97 1017.5
20220117124916 36 0.0 0.0 0.00 0.00 0.00 98 1017.4
20220117124712 36 0.0 0.0 0.00 0.00 0.00 97 1017.4
20220117124021 36 0.0 0.0 0.00 0.00 0.00 97 1017.6
20220117123749 36 0.0 0.0 0.00 0.00 0.00 97 1017.7
20220117123116 36 0.0 0.0 0.00 0.00 0.00 97 1017.6